Station Historical Data
Daily Summary for October 24, 2017 Units:  Metric    English   Both
« Previous Day
Next Day »
Daily Weekly Monthly Yearly Custom
  High: Low: Average:
Temperature: 17 °C 10.2 °C 14.1 °C
Dew Point: 12.9 °C 4.1 °C 8.9 °C
Humidity: 89% 50% 72%
Wind Speed: 22.5km/h 0km/h 8km/h
Wind Gust: 40.2km/h - -
Wind- - SSW
Pressure: 1005.6 hPa 1000.2 hPa -
Precipitation: 0 mm    
Historical Graphs
 
 
Tabular Data for October 24, 2017
Time Temperature Dew Point Pressure Wind Wind Speed Wind Gust Humidity Rainfall Rate (Hourly)
00:04 15.7 °C 12.9 °C 1002.6 hPa South 4.8 km/h 8 km/h 84% 0.51 mm
00:09 15.6 °C 12.9 °C 1002.3 hPa South 1.6 km/h 8 km/h 84% 0.51 mm
00:14 15.6 °C 12.9 °C 1002.3 hPa SSW 1.6 km/h 6.4 km/h 84% 0.51 mm
00:19 15.5 °C 12.8 °C 1001.6 hPa Calm   4.8 km/h 84% 0.25 mm
00:24 15.5 °C 12.8 °C 1001.6 hPa Calm     84% 0.25 mm
00:29 15.5 °C 12.8 °C 1001.6 hPa Calm     84% 0.25 mm
00:34 15.4 °C 12.8 °C 1000.9 hPa Calm     84% 0 mm
00:39 15.4 °C 12.8 °C 1000.9 hPa Calm     84% 0 mm
00:44 15.4 °C 12.8 °C 1001.2 hPa Calm     84% 0 mm
00:49 15.4 °C 12.8 °C 1000.9 hPa Calm     84% 0.25 mm
00:54 15.4 °C 12.7 °C 1001.2 hPa Calm   3.2 km/h 84% 0.25 mm
01:04 15.4 °C 12.9 °C 1002.3 hPa SSW 9.7 km/h 14.5 km/h 85% 2.54 mm
01:09 15.3 °C 12.9 °C 1001.6 hPa SSW 6.4 km/h 20.9 km/h 86% 3.05 mm
01:14 15.2 °C 12.9 °C 1001.6 hPa SSW 4.8 km/h 11.3 km/h 86% 3.56 mm
01:19 15.1 °C 12.7 °C 1001.2 hPa South 3.2 km/h 11.3 km/h 86% 4.06 mm
01:24 14.9 °C 12.8 °C 1001.2 hPa SSE 3.2 km/h 8 km/h 87% 4.32 mm
01:29 14.8 °C 12.6 °C 1000.6 hPa SSE 1.6 km/h 9.7 km/h 87% 4.32 mm
01:34 14.7 °C 12.6 °C 1000.9 hPa SSE 1.6 km/h 9.7 km/h 87% 4.83 mm
01:39 14.6 °C 12.7 °C 1001.2 hPa SE 1.6 km/h 8 km/h 88% 4.83 mm
01:44 14.6 °C 12.6 °C 1000.9 hPa Calm   8 km/h 88% 5.33 mm
01:49 14.4 °C 12.5 °C 1001.2 hPa South 8 km/h 8 km/h 88% 5.59 mm
01:54 14.4 °C 12.5 °C 1001.2 hPa SSW 3.2 km/h 8 km/h 88% 5.59 mm
01:59 14.4 °C 12.4 °C 1000.9 hPa Calm   4.8 km/h 88% 5.33 mm
02:04 14.3 °C 12.4 °C 1000.9 hPa SSW 8 km/h 8 km/h 88% 3.56 mm
02:09 14.3 °C 12.6 °C 1000.9 hPa SSE 8 km/h 14.5 km/h 89% 3.05 mm
02:14 14.3 °C 12.5 °C 1000.9 hPa Calm   9.7 km/h 89% 2.54 mm
02:19 14.3 °C 12.5 °C 1001.2 hPa SSW 1.6 km/h 9.7 km/h 89% 2.03 mm
02:24 14.3 °C 12.5 °C 1001.2 hPa SSW 4.8 km/h 12.9 km/h 89% 1.78 mm
02:29 14.3 °C 12.5 °C 1001.2 hPa SSW 4.8 km/h 19.3 km/h 89% 1.78 mm
02:34 14.2 °C 12.4 °C 1000.9 hPa SSW 6.4 km/h 19.3 km/h 89% 1.27 mm
02:39 14.2 °C 12.2 °C 1000.9 hPa SSW 6.4 km/h 17.7 km/h 88% 1.27 mm
02:44 14.1 °C 12.2 °C 1000.6 hPa SSW 6.4 km/h 14.5 km/h 88% 0.76 mm
02:49 14.1 °C 12.1 °C 1000.9 hPa SSW 6.4 km/h 14.5 km/h 88% 0.25 mm
02:54 14.1 °C 11.9 °C 1000.6 hPa South 9.7 km/h 12.9 km/h 87% 0.25 mm
02:59 14 °C 11.9 °C 1000.6 hPa South 3.2 km/h 12.9 km/h 87% 0 mm
03:04 13.9 °C 11.8 °C 1000.9 hPa Calm   9.7 km/h 87% 0 mm
03:09 13.9 °C 11.8 °C 1000.9 hPa South 1.6 km/h 14.5 km/h 87% 0 mm
03:14 13.8 °C 11.7 °C 1000.9 hPa SSE 1.6 km/h 9.7 km/h 87% 0 mm
03:19 13.8 °C 11.5 °C 1000.9 hPa Calm   9.7 km/h 86% 0 mm
03:24 13.7 °C 11.4 °C 1000.9 hPa SSE 1.6 km/h 16.1 km/h 86% 0 mm
03:29 13.7 °C 11.6 °C 1000.6 hPa South 4.8 km/h 16.1 km/h 87% 0 mm
03:34 13.7 °C 11.4 °C 1000.6 hPa South 4.8 km/h 12.9 km/h 86% 0 mm
03:39 13.8 °C 11.5 °C 1000.6 hPa South 4.8 km/h 11.3 km/h 86% 0 mm
03:44 13.7 °C 11.4 °C 1000.6 hPa South 3.2 km/h 11.3 km/h 86% 0 mm
03:49 13.6 °C 11.3 °C 1000.2 hPa South 3.2 km/h 14.5 km/h 86% 0 mm
03:54 13.6 °C 11.3 °C 1000.2 hPa SSW 9.7 km/h 12.9 km/h 86% 0 mm
03:59 13.6 °C 11.3 °C 1000.2 hPa SSE 6.4 km/h 12.9 km/h 86% 0 mm
04:04 13.7 °C 11.4 °C 1000.2 hPa South 6.4 km/h 12.9 km/h 86% 0 mm
04:09 13.8 °C 11.3 °C 1000.6 hPa SSE 6.4 km/h 11.3 km/h 85% 0 mm
04:14 13.9 °C 11.4 °C 1000.6 hPa South 6.4 km/h 14.5 km/h 85% 0 mm
04:19 14.1 °C 11.6 °C 1000.6 hPa SSW 11.3 km/h 12.9 km/h 85% 0 mm
04:24 14.2 °C 11.5 °C 1000.6 hPa SSW 9.7 km/h 14.5 km/h 84% 0 mm
04:29 14.2 °C 11.6 °C 1000.6 hPa SSW 6.4 km/h 9.7 km/h 84% 0 mm
04:34 14.3 °C 11.6 °C 1000.6 hPa SE 3.2 km/h 19.3 km/h 84% 0 mm
04:39 14.3 °C 11.5 °C 1000.6 hPa South 4.8 km/h 19.3 km/h 83% 0 mm
04:44 14.4 °C 11.6 °C 1000.6 hPa South 4.8 km/h 12.9 km/h 83% 0 mm
04:49 14.4 °C 11.6 °C 1000.6 hPa South 4.8 km/h 14.5 km/h 83% 0 mm
04:54 14.4 °C 11.6 °C 1000.6 hPa South 4.8 km/h 14.5 km/h 83% 0 mm
04:59 14.4 °C 11.6 °C 1000.6 hPa South 4.8 km/h 14.5 km/h 83% 0 mm
05:04 14.4 °C 11.3 °C 1000.6 hPa South 6.4 km/h 12.9 km/h 82% 0 mm
05:09 14.3 °C 11.3 °C 1000.2 hPa South 6.4 km/h 16.1 km/h 82% 0 mm
05:14 14.2 °C 11.2 °C 1000.2 hPa South 4.8 km/h 16.1 km/h 82% 0 mm
05:19 14.2 °C 11.1 °C 1000.6 hPa SSW 4.8 km/h 22.5 km/h 82% 0 mm
05:24 14.1 °C 11.1 °C 1000.6 hPa SSW 17.7 km/h 20.9 km/h 82% 0 mm
05:29 14.1 °C 11.1 °C 1000.6 hPa South 3.2 km/h 17.7 km/h 82% 0 mm
05:34 14.1 °C 11.1 °C 1000.6 hPa South 6.4 km/h 20.9 km/h 82% 0 mm
05:39 14.2 °C 10.9 °C 1000.6 hPa South 1.6 km/h 24.1 km/h 81% 0 mm
05:44 14.2 °C 10.9 °C 1000.6 hPa SSW 8 km/h 24.1 km/h 81% 0 mm
05:49 14.2 °C 11 °C 1000.6 hPa SSW 8 km/h 22.5 km/h 81% 0 mm
05:54 14.3 °C 11.1 °C 1000.6 hPa SSW 9.7 km/h 33.8 km/h 81% 0 mm
05:59 14.5 °C 11.1 °C 1000.9 hPa SSW 9.7 km/h 22.5 km/h 80% 0 mm
06:04 14.7 °C 11.3 °C 1000.9 hPa SSW 3.2 km/h 29 km/h 80% 0 mm
06:09 14.8 °C 11.2 °C 1000.9 hPa SW 17.7 km/h 27.4 km/h 79% 0 mm
06:14 14.8 °C 11.2 °C 1000.6 hPa South 4.8 km/h 25.7 km/h 79% 0 mm
06:19 14.8 °C 11.2 °C 1000.6 hPa South 11.3 km/h 25.7 km/h 79% 0 mm
06:24 14.8 °C 11.2 °C 1000.6 hPa South 8 km/h 22.5 km/h 79% 0 mm
06:29 14.7 °C 11.1 °C 1000.6 hPa South 9.7 km/h 24.1 km/h 79% 0 mm
06:34 14.6 °C 11 °C 1000.9 hPa South 8 km/h 22.5 km/h 79% 0 mm
06:39 14.6 °C 10.9 °C 1000.9 hPa SW 1.6 km/h 16.1 km/h 79% 0 mm
06:44 14.5 °C 10.9 °C 1001.2 hPa SSW 22.5 km/h 24.1 km/h 79% 0 mm
06:49 14.5 °C 10.9 °C 1001.2 hPa SW 8 km/h 22.5 km/h 79% 0 mm
06:54 14.4 °C 10.8 °C 1001.2 hPa SSW 9.7 km/h 29 km/h 79% 0 mm
06:59 14.5 °C 10.9 °C 1001.2 hPa SSW 11.3 km/h 29 km/h 79% 0 mm
07:04 14.6 °C 10.9 °C 1001.9 hPa SW 12.9 km/h 32.2 km/h 79% 0 mm
07:09 14.4 °C 11.2 °C 1001.9 hPa WSW 12.9 km/h 32.2 km/h 81% 0.25 mm
07:14 14.1 °C 11.1 °C 1001.9 hPa SW 12.9 km/h 24.1 km/h 82% 0.51 mm
07:19 13.8 °C 11.2 °C 1001.9 hPa SW 11.3 km/h 22.5 km/h 84% 0.51 mm
07:24 13.7 °C 11 °C 1001.9 hPa SW 9.7 km/h 22.5 km/h 84% 0.51 mm
07:29 13.6 °C 11.1 °C 1001.9 hPa WSW 9.7 km/h 19.3 km/h 85% 0.51 mm
07:34 13.4 °C 10.9 °C 1001.9 hPa SW 8 km/h 19.3 km/h 85% 0.51 mm
07:39 13.3 °C 10.8 °C 1002.3 hPa WSW 12.9 km/h 27.4 km/h 85% 0.51 mm
07:44 13.2 °C 10.8 °C 1002.3 hPa SW 9.7 km/h 24.1 km/h 85% 0.51 mm
07:49 13.1 °C 10.8 °C 1002.3 hPa SSW 9.7 km/h 32.2 km/h 86% 0.51 mm
07:54 13.1 °C 10.8 °C 1002.6 hPa SW 8 km/h 22.5 km/h 86% 0.51 mm
07:59 13.1 °C 10.8 °C 1002.6 hPa SW 11.3 km/h 22.5 km/h 86% 0.51 mm
08:04 13 °C 10.9 °C 1002.6 hPa SW 9.7 km/h 22.5 km/h 87% 0.51 mm
08:09 12.9 °C 10.8 °C 1002.6 hPa SW 8 km/h 20.9 km/h 87% 0.51 mm
08:14 13 °C 10.9 °C 1002.6 hPa WSW 14.5 km/h 17.7 km/h 87% 0.25 mm
08:19 13 °C 10.9 °C 1002.6 hPa SW 6.4 km/h 24.1 km/h 87% 0.25 mm
08:24 12.8 °C 10.7 °C 1002.6 hPa SW 6.4 km/h 20.9 km/h 87% 0.25 mm
08:29 12.8 °C 10.8 °C 1002.6 hPa NNW 9.7 km/h 29 km/h 88% 0.51 mm
08:34 12.8 °C 10.8 °C 1002.6 hPa WSW 9.7 km/h 29 km/h 88% 0.51 mm
08:39 12.8 °C 10.9 °C 1002.6 hPa SW 8 km/h 19.3 km/h 88% 0.51 mm
08:44 12.8 °C 10.9 °C 1002.6 hPa SW 8 km/h 19.3 km/h 88% 0.51 mm
08:49 12.9 °C 11.1 °C 1002.9 hPa SW 8 km/h 22.5 km/h 89% 0.51 mm
08:54 12.9 °C 11 °C 1002.9 hPa SW 8 km/h 22.5 km/h 88% 0.51 mm
08:59 12.9 °C 11 °C 1002.9 hPa SW 8 km/h 19.3 km/h 88% 0.51 mm
09:04 13.1 °C 11.3 °C 1002.9 hPa South 4.8 km/h 16.1 km/h 89% 0.51 mm
09:09 13.2 °C 11.4 °C 1002.9 hPa South 6.4 km/h 16.1 km/h 89% 0.25 mm
09:14 13.3 °C 11.6 °C 1002.9 hPa SSW 4.8 km/h 16.1 km/h 89% 0.25 mm
09:19 13.4 °C 11.7 °C 1002.9 hPa WSW 6.4 km/h 11.3 km/h 89% 0.25 mm
09:24 13.3 °C 11.4 °C 1002.9 hPa SW 4.8 km/h 16.1 km/h 88% 0.25 mm
09:29 13.5 °C 11.4 °C 1002.9 hPa SW 12.9 km/h 14.5 km/h 87% 0 mm
09:34 13.6 °C 11.4 °C 1002.9 hPa SSW 9.7 km/h 12.9 km/h 87% 0 mm
09:39 13.8 °C 11.7 °C 1002.9 hPa SW 6.4 km/h 14.5 km/h 87% 0 mm
09:44 14.1 °C 11.6 °C 1002.9 hPa SW 6.4 km/h 20.9 km/h 85% 0 mm
09:49 14.1 °C 11.4 °C 1002.9 hPa SW 8 km/h 20.9 km/h 84% 0 mm
09:54 14.3 °C 11.4 °C 1003.3 hPa SSW 8 km/h 17.7 km/h 83% 0 mm
09:59 14.4 °C 11.2 °C 1002.9 hPa SSW 8 km/h 17.7 km/h 81% 0 mm
10:04 14.5 °C 11.1 °C 1002.9 hPa SW 8 km/h 19.3 km/h 80% 0 mm
10:09 14.6 °C 11 °C 1002.9 hPa West 8 km/h 16.1 km/h 79% 0 mm
10:14 14.5 °C 10.7 °C 1002.9 hPa SW 8 km/h 17.7 km/h 78% 0 mm
10:19 14.6 °C 10.6 °C 1002.9 hPa SSW 8 km/h 19.3 km/h 77% 0 mm
10:24 14.4 °C 10.4 °C 1002.9 hPa SSE 9.7 km/h 19.3 km/h 77% 0 mm
10:29 14.4 °C 10.4 °C 1002.9 hPa West 9.7 km/h 19.3 km/h 77% 0 mm
10:34 14.6 °C 10.2 °C 1002.9 hPa SSW 11.3 km/h 25.7 km/h 75% 0 mm
10:39 14.7 °C 10.1 °C 1002.9 hPa SSE 6.4 km/h 27.4 km/h 74% 0 mm
10:44 14.9 °C 10.3 °C 1002.9 hPa WSW 9.7 km/h 27.4 km/h 74% 0 mm
10:49 15.1 °C 10.4 °C 1003.3 hPa SW 11.3 km/h 27.4 km/h 74% 0 mm
10:54 15.2 °C 10.3 °C 1003.3 hPa SW 9.7 km/h 24.1 km/h 73% 0 mm
10:59 15.3 °C 10.3 °C 1002.9 hPa SW 11.3 km/h 25.7 km/h 72% 0 mm
11:04 15.4 °C 10.8 °C 1003.3 hPa SW 11.3 km/h 25.7 km/h 74% 0 mm
11:09 15.2 °C 10.3 °C 1003.3 hPa SW 9.7 km/h 19.3 km/h 73% 0 mm
11:14 14.8 °C 10 °C 1003.3 hPa SW 9.7 km/h 19.3 km/h 73% 0 mm
11:19 14.4 °C 9.8 °C 1003.3 hPa SW 4.8 km/h 16.1 km/h 74% 0 mm
11:24 14.2 °C 9.2 °C 1003.3 hPa SSE 16.1 km/h 25.7 km/h 72% 0 mm
11:29 14.2 °C 9 °C 1003.3 hPa South 6.4 km/h 16.1 km/h 71% 0 mm
11:34 14.5 °C 9.3 °C 1002.9 hPa WSW 6.4 km/h 19.3 km/h 71% 0 mm
11:39 14.8 °C 9.3 °C 1002.9 hPa SW 4.8 km/h 16.1 km/h 70% 0 mm
11:44 14.9 °C 9.7 °C 1002.9 hPa WSW 11.3 km/h 16.1 km/h 71% 0 mm
11:49 15.2 °C 9.3 °C 1002.6 hPa WSW 6.4 km/h 17.7 km/h 68% 0 mm
11:54 15.7 °C 9.6 °C 1002.9 hPa WSW 8 km/h 17.7 km/h 67% 0 mm
11:59 15.6 °C 9.5 °C 1002.6 hPa WSW 9.7 km/h 20.9 km/h 67% 0 mm
12:04 15.8 °C 9.2 °C 1002.9 hPa SW 11.3 km/h 20.9 km/h 65% 0 mm
12:09 15.8 °C 9.4 °C 1002.9 hPa SW 8 km/h 16.1 km/h 66% 0 mm
12:14 16.3 °C 9.4 °C 1002.9 hPa SW 6.4 km/h 16.1 km/h 64% 0 mm
12:19 16.1 °C 9 °C 1002.9 hPa SSE 8 km/h 17.7 km/h 63% 0 mm
12:24 16.2 °C 9.4 °C 1002.9 hPa West 4.8 km/h 17.7 km/h 64% 0 mm
12:29 16.2 °C 9.3 °C 1002.9 hPa WSW 9.7 km/h 19.3 km/h 64% 0 mm
12:34 15.8 °C 9.3 °C 1002.9 hPa WSW 9.7 km/h 19.3 km/h 65% 0 mm
12:39 15.6 °C 9.3 °C 1002.9 hPa WSW 8 km/h 17.7 km/h 66% 0 mm
12:44 15.4 °C 9.1 °C 1003.3 hPa SE 6.4 km/h 16.1 km/h 66% 0 mm
12:54 15.1 °C 9 °C 1002.9 hPa WSW 3.2 km/h 16.1 km/h 67% 0 mm
12:59 15.2 °C 9.3 °C 1003.3 hPa WSW 4.8 km/h 11.3 km/h 68% 0 mm
13:04 15.1 °C 9.2 °C 1003.3 hPa WSW 6.4 km/h 12.9 km/h 68% 0 mm
13:09 15.1 °C 9 °C 1003.3 hPa SW 4.8 km/h 17.7 km/h 67% 0 mm
13:14 15.3 °C 9.4 °C 1002.9 hPa SW 4.8 km/h 17.7 km/h 68% 0 mm
13:19 15.6 °C 9.5 °C 1002.9 hPa SW 6.4 km/h 12.9 km/h 67% 0 mm
13:24 16.1 °C 10.2 °C 1002.9 hPa SW 6.4 km/h 12.9 km/h 68% 0 mm
13:29 16.8 °C 10.6 °C 1002.9 hPa SW 8 km/h 12.9 km/h 67% 0 mm
13:34 17 °C 10.1 °C 1002.9 hPa SW 8 km/h 14.5 km/h 64% 0 mm
13:39 17 °C 9.9 °C 1002.9 hPa SW 16.1 km/h 22.5 km/h 63% 0 mm
13:44 16.6 °C 9.3 °C 1002.9 hPa SW 11.3 km/h 27.4 km/h 62% 0 mm
13:49 16.4 °C 9.1 °C 1002.9 hPa SSW 8 km/h 20.9 km/h 62% 0 mm
13:54 16.4 °C 9.8 °C 1002.9 hPa SW 11.3 km/h 19.3 km/h 65% 0 mm
13:59 16.4 °C 9.6 °C 1003.3 hPa SSW 3.2 km/h 17.7 km/h 64% 0 mm
14:09 16.7 °C 9.3 °C 1003.3 hPa SSW 9.7 km/h 24.1 km/h 62% 0 mm
14:14 16.6 °C 9 °C 1003.3 hPa SSW 8 km/h 19.3 km/h 61% 0 mm
14:19 16.3 °C 8.8 °C 1003.3 hPa SSW 8 km/h 20.9 km/h 61% 0 mm
14:24 16.1 °C 8.8 °C 1003.3 hPa SW 8 km/h 20.9 km/h 62% 0 mm
14:29 15.9 °C 8.7 °C 1002.9 hPa SSW 8 km/h 24.1 km/h 62% 0 mm
14:34 15.8 °C 8.6 °C 1002.9 hPa WSW 4.8 km/h 17.7 km/h 62% 0 mm
14:39 15.8 °C 8.3 °C 1002.9 hPa SW 9.7 km/h 17.7 km/h 61% 0 mm
14:44 15.8 °C 8.3 °C 1002.9 hPa SW 9.7 km/h 17.7 km/h 61% 0 mm
14:49 15.8 °C 8.3 °C 1002.9 hPa SW 8 km/h 25.7 km/h 61% 0 mm
14:54 15.8 °C 8 °C 1002.9 hPa SW 11.3 km/h 33.8 km/h 60% 0 mm
14:59 15.7 °C 8 °C 1002.9 hPa South 8 km/h 30.6 km/h 60% 0 mm
15:04 15.7 °C 7.9 °C 1002.9 hPa WSW 16.1 km/h 25.7 km/h 60% 0 mm
15:09 15.7 °C 7.9 °C 1002.9 hPa SW 4.8 km/h 20.9 km/h 60% 0 mm
15:14 15.6 °C 7.9 °C 1002.9 hPa SW 9.7 km/h 22.5 km/h 60% 0 mm
15:19 15.6 °C 7.8 °C 1002.9 hPa SW 11.3 km/h 25.7 km/h 60% 0 mm
15:24 15.8 °C 8.1 °C 1002.6 hPa SSW 11.3 km/h 27.4 km/h 60% 0 mm
15:29 16 °C 8 °C 1002.9 hPa SSW 9.7 km/h 27.4 km/h 59% 0 mm
15:34 16.1 °C 8.1 °C 1002.9 hPa SSW 11.3 km/h 20.9 km/h 59% 0 mm
15:39 16.3 °C 8.5 °C 1002.9 hPa South 3.2 km/h 17.7 km/h 60% 0 mm
15:44 16.6 °C 8.3 °C 1002.9 hPa SSW 12.9 km/h 22.5 km/h 58% 0 mm
15:49 16.2 °C 8.2 °C 1002.9 hPa SSW 11.3 km/h 27.4 km/h 59% 0 mm
15:54 16 °C 8.2 °C 1002.9 hPa SSW 11.3 km/h 27.4 km/h 60% 0 mm
15:59 16.6 °C 8.3 °C 1002.9 hPa SSW 11.3 km/h 25.7 km/h 58% 0 mm
16:04 16.3 °C 7.6 °C 1002.9 hPa South 9.7 km/h 29 km/h 56% 0 mm
16:09 16.1 °C 7.3 °C 1003.3 hPa SW 17.7 km/h 33.8 km/h 56% 0 mm
16:14 16.3 °C 7.3 °C 1003.3 hPa SSE 17.7 km/h 40.2 km/h 55% 0 mm
16:19 16.5 °C 7.4 °C 1003.3 hPa SSW 17.7 km/h 25.7 km/h 55% 0 mm
16:24 16.4 °C 7.1 °C 1003.6 hPa SSW 12.9 km/h 25.7 km/h 54% 0 mm
16:29 16.3 °C 6.9 °C 1003.6 hPa SW 12.9 km/h 24.1 km/h 54% 0 mm
16:34 16 °C 6.9 °C 1003.6 hPa SW 11.3 km/h 24.1 km/h 55% 0 mm
16:39 15.8 °C 7 °C 1003.6 hPa SW 9.7 km/h 24.1 km/h 56% 0 mm
16:44 16 °C 6.7 °C 1003.6 hPa SSW 11.3 km/h 35.4 km/h 54% 0 mm
16:49 16.2 °C 6.9 °C 1003.6 hPa SW 6.4 km/h 24.1 km/h 54% 0 mm
16:54 16.1 °C 6.5 °C 1003.6 hPa SW 12.9 km/h 27.4 km/h 53% 0 mm
16:59 15.9 °C 6.4 °C 1003.6 hPa South 9.7 km/h 30.6 km/h 53% 0 mm
17:04 15.8 °C 6.3 °C 1003.9 hPa SSW 4.8 km/h 24.1 km/h 53% 0 mm
17:09 15.7 °C 6.1 °C 1003.6 hPa SW 9.7 km/h 24.1 km/h 53% 0 mm
17:14 15.6 °C 6.3 °C 1003.6 hPa SW 9.7 km/h 24.1 km/h 54% 0 mm
17:19 15.6 °C 6.3 °C 1003.9 hPa South 12.9 km/h 24.1 km/h 54% 0 mm
17:24 15.4 °C 6.2 °C 1003.9 hPa WSW 8 km/h 20.9 km/h 54% 0 mm
17:29 15.4 °C 6.4 °C 1003.9 hPa SSW 9.7 km/h 24.1 km/h 55% 0 mm
17:34 15.3 °C 6.3 °C 1003.9 hPa SSW 9.7 km/h 24.1 km/h 55% 0 mm
17:39 15.3 °C 6.1 °C 1003.9 hPa SSW 8 km/h 17.7 km/h 54% 0 mm
17:44 15.4 °C 5.6 °C 1003.9 hPa SSW 9.7 km/h 33.8 km/h 52% 0 mm
17:49 15.4 °C 5.3 °C 1003.9 hPa SSW 14.5 km/h 35.4 km/h 51% 0 mm
17:54 15.2 °C 5.7 °C 1004.3 hPa SSW 14.5 km/h 35.4 km/h 53% 0 mm
17:59 15 °C 5.8 °C 1004.3 hPa SW 16.1 km/h 27.4 km/h 54% 0 mm
18:04 14.9 °C 5.9 °C 1004.3 hPa SW 12.9 km/h 37 km/h 55% 0 mm
18:09 14.7 °C 5.5 °C 1004.6 hPa SSW 8 km/h 37 km/h 54% 0 mm
18:14 14.5 °C 5 °C 1004.6 hPa SW 17.7 km/h 24.1 km/h 53% 0 mm
18:19 14.4 °C 4.7 °C 1004.6 hPa South 9.7 km/h 22.5 km/h 52% 0 mm
18:24 14.3 °C 4.3 °C 1005 hPa SSW 12.9 km/h 30.6 km/h 51% 0 mm
18:29 14.3 °C 4.1 °C 1005 hPa SSW 11.3 km/h 32.2 km/h 50% 0 mm
18:34 14.2 °C 4.2 °C 1005 hPa SW 16.1 km/h 32.2 km/h 51% 0 mm
18:39 14.1 °C 4.1 °C 1005 hPa SW 14.5 km/h 32.2 km/h 51% 0 mm
18:44 13.8 °C 4.1 °C 1005 hPa SW 12.9 km/h 30.6 km/h 52% 0 mm
18:49 13.7 °C 4.3 °C 1005 hPa SW 11.3 km/h 25.7 km/h 53% 0 mm
18:54 13.6 °C 4.2 °C 1005 hPa SW 16.1 km/h 19.3 km/h 53% 0 mm
18:59 13.4 °C 4.3 °C 1005 hPa SSW 3.2 km/h 22.5 km/h 54% 0 mm
19:04 13.2 °C 4.6 °C 1005 hPa South 8 km/h 27.4 km/h 56% 0 mm
19:09 13.1 °C 4.5 °C 1005 hPa SSW 9.7 km/h 27.4 km/h 56% 0 mm
19:14 13.1 °C 4.7 °C 1005 hPa SSW 9.7 km/h 22.5 km/h 57% 0 mm
19:19 12.9 °C 4.8 °C 1005 hPa SSW 9.7 km/h 22.5 km/h 58% 0 mm
19:24 12.8 °C 4.9 °C 1005.3 hPa SW 6.4 km/h 17.7 km/h 59% 0 mm
19:29 12.6 °C 5 °C 1005.3 hPa WSW 4.8 km/h 16.1 km/h 60% 0 mm
19:34 12.6 °C 5 °C 1005.3 hPa SW 4.8 km/h 20.9 km/h 60% 0 mm
19:39 12.6 °C 5.2 °C 1005.3 hPa SW 6.4 km/h 25.7 km/h 61% 0 mm
19:44 12.6 °C 5.2 °C 1005.3 hPa SSW 9.7 km/h 25.7 km/h 61% 0 mm
19:49 12.4 °C 5.3 °C 1005.3 hPa SSW 8 km/h 24.1 km/h 62% 0 mm
19:54 12.3 °C 5.3 °C 1005.3 hPa SW 8 km/h 24.1 km/h 62% 0 mm
19:59 12.3 °C 5.2 °C 1005.3 hPa SSW 8 km/h 20.9 km/h 62% 0 mm
20:04 12.2 °C 5.2 °C 1005.3 hPa SW 8 km/h 22.5 km/h 62% 0 mm
20:09 12.2 °C 5.2 °C 1005.3 hPa WSW 16.1 km/h 27.4 km/h 62% 0 mm
20:14 12.1 °C 5.3 °C 1005.6 hPa SW 9.7 km/h 16.1 km/h 63% 0 mm
20:19 12 °C 5.2 °C 1005.6 hPa SSW 8 km/h 16.1 km/h 63% 0 mm
20:24 11.9 °C 5.3 °C 1005.6 hPa SSW 8 km/h 17.7 km/h 64% 0 mm
20:29 11.9 °C 5.6 °C 1005.6 hPa SSW 8 km/h 17.7 km/h 65% 0 mm
20:34 11.9 °C 5.5 °C 1005.6 hPa SSW 8 km/h 25.7 km/h 65% 0 mm
20:39 11.9 °C 5.5 °C 1005.6 hPa SW 4.8 km/h 20.9 km/h 65% 0 mm
20:44 11.8 °C 5.7 °C 1005.6 hPa SW 9.7 km/h 25.7 km/h 66% 0 mm
20:49 11.8 °C 5.7 °C 1005.6 hPa SSW 9.7 km/h 25.7 km/h 66% 0 mm
20:54 11.9 °C 5.7 °C 1005.6 hPa SSW 11.3 km/h 25.7 km/h 66% 0 mm
20:59 11.8 °C 5.7 °C 1005.6 hPa SSE 14.5 km/h 20.9 km/h 66% 0 mm
21:04 11.8 °C 5.7 °C 1005.6 hPa South 4.8 km/h 19.3 km/h 66% 0 mm
21:09 11.7 °C 5.6 °C 1005.6 hPa SSW 11.3 km/h 22.5 km/h 66% 0 mm
21:14 11.7 °C 5.5 °C 1005.6 hPa SSW 6.4 km/h 19.3 km/h 66% 0 mm
21:19 11.6 °C 5.4 °C 1005.6 hPa SSW 4.8 km/h 19.3 km/h 66% 0 mm
21:24 11.6 °C 5.4 °C 1005.6 hPa SSW 8 km/h 19.3 km/h 66% 0 mm
21:29 11.5 °C 5.4 °C 1005.6 hPa SSW 9.7 km/h 22.5 km/h 66% 0 mm
21:34 11.4 °C 5.3 °C 1005.6 hPa SW 8 km/h 24.1 km/h 66% 0 mm
21:39 11.4 °C 5.5 °C 1005.6 hPa SSW 8 km/h 24.1 km/h 67% 0 mm
21:44 11.3 °C 5.4 °C 1005.6 hPa SSW 8 km/h 16.1 km/h 67% 0 mm
21:49 11.2 °C 5.3 °C 1005.6 hPa SSW 3.2 km/h 25.7 km/h 67% 0 mm
21:54 11.2 °C 5.3 °C 1005.6 hPa SW 1.6 km/h 17.7 km/h 67% 0 mm
21:59 11.3 °C 5.4 °C 1005.6 hPa SSW 8 km/h 17.7 km/h 67% 0 mm
22:04 11.3 °C 5.4 °C 1005.6 hPa SSW 9.7 km/h 24.1 km/h 67% 0 mm
22:09 11.2 °C 5.3 °C 1005.6 hPa SSW 4.8 km/h 14.5 km/h 67% 0 mm
22:14 11.1 °C 5.2 °C 1005.6 hPa South 3.2 km/h 22.5 km/h 67% 0 mm
22:19 10.9 °C 5.3 °C 1005.6 hPa SSW 9.7 km/h 14.5 km/h 68% 0 mm
22:24 10.9 °C 5.2 °C 1005.6 hPa South 4.8 km/h 14.5 km/h 68% 0 mm
22:29 10.8 °C 5.2 °C 1005.6 hPa SSW 6.4 km/h 17.7 km/h 68% 0 mm
22:34 10.8 °C 5.2 °C 1005.6 hPa SSW 6.4 km/h 19.3 km/h 68% 0 mm
22:39 10.8 °C 4.9 °C 1005.6 hPa SSW 8 km/h 19.3 km/h 67% 0 mm
22:44 10.9 °C 5 °C 1005.6 hPa SSW 8 km/h 19.3 km/h 67% 0 mm
22:49 10.8 °C 4.7 °C 1005.6 hPa SSW 8 km/h 19.3 km/h 66% 0 mm
22:54 10.8 °C 4.7 °C 1005.6 hPa SSW 9.7 km/h 24.1 km/h 66% 0 mm
22:59 10.8 °C 4.9 °C 1005.6 hPa SSW 9.7 km/h 24.1 km/h 67% 0 mm
23:04 10.6 °C 4.7 °C 1005.6 hPa SSW 8 km/h 17.7 km/h 67% 0 mm
23:09 10.5 °C 4.6 °C 1005.3 hPa SW 9.7 km/h 17.7 km/h 67% 0 mm
23:14 10.4 °C 4.6 °C 1005.6 hPa SW 6.4 km/h 16.1 km/h 67% 0 mm
23:19 10.4 °C 4.8 °C 1005.3 hPa SSW 4.8 km/h 27.4 km/h 68% 0 mm
23:24 10.4 °C 4.8 °C 1005.3 hPa SW 4.8 km/h 22.5 km/h 68% 0 mm
23:29 10.4 °C 4.8 °C 1005.3 hPa SSW 12.9 km/h 19.3 km/h 68% 0 mm
23:34 10.4 °C 4.7 °C 1005.3 hPa SSW 8 km/h 16.1 km/h 68% 0 mm
23:39 10.3 °C 4.6 °C 1005.3 hPa SSW 9.7 km/h 17.7 km/h 68% 0 mm
23:44 10.2 °C 4.8 °C 1005.3 hPa SSW 9.7 km/h 20.9 km/h 69% 0 mm
23:49 10.2 °C 4.8 °C 1005.3 hPa SSW 9.7 km/h 24.1 km/h 69% 0 mm
23:54 10.2 °C 4.7 °C 1005.3 hPa SSW 9.7 km/h 24.1 km/h 69% 0 mm
23:59 10.2 °C 4.9 °C 1005.3 hPa SSW 9.7 km/h 24.1 km/h 70% 0 mm
Buffalo, New York, USA
Compliments of Weather Underground - 2.5 mb